Change the Weather History Date:

Sunday, January 5, 2014

  Actual Average Record
Temperature  
Mean Temperature -16 °F 9 °F  
Max Temperature -13 °F 18 °F 55 °F (2012)
Min Temperature -20 °F 1 °F -37 °F (1883)
Degree Days  
Heating Degree Days 81 56  
Month to date heating degree days 358 276  
Since 1 July heating degree days 4081 3816  
Cooling Degree Days 0 0  
Month to date cooling degree days 0 0  
Year to date cooling degree days 0 0  
Moisture  
Dew Point -26 °F    
Average Humidity 64    
Maximum Humidity 70    
Minimum Humidity 57    
Precipitation  
Precipitation T in 0.03 in 0.34 in (1998)
Month to date precipitation 0.04 0.13  
Year to date precipitation 0.04 0.13  
Snow  
Snow T in 0.40 in 6.20 in (1994)
Month to date snowfall 0.3 2.0  
Since 1 July snowfall 16.7 21.8  
Snow Depth 8.00 in    
Sea Level Pressure  
Sea Level Pressure 30.50 in    
Wind  
Wind Speed 13 mph (NW)    
Max Wind Speed 23 mph    
Max Gust Speed 26 mph    
Visibility 9 miles    
Events      
T = Trace of Precipitation, MM = Missing Value Source: NWS Daily Summary

Daily Weather History Graph

Daily Weather History Graph

Search for Another Location

Airport or City:

Trip Planner

Search our weather history database for the weather conditions in past years. The results will help you decide how hot, cold, wet, or windy it might be!

Date:

Astronomy

Jan. 05, 2014 Rise Set
Actual Time 8:12 AM CST 4:53 PM CST
Civil Twilight 7:37 AM CST 5:28 PM CST
Nautical Twilight 6:59 AM CST 6:06 PM CST
Astronomical Twilight 6:22 AM CST 6:43 PM CST
Moon 10:34 AM CST (1/5) 10:45 PM CST (1/5)
Length of Visible Light 9h 50m
Length of Day
8h 41m
Waxing Crescent, 25% of the Moon is Illuminated
Jan 5
Waxing Crescent
Jan 7
First Quarter
Jan 15
Full
Jan 23
Last Quarter
Jan 30
New

Hourly Weather History & Observations

Time (CST) Temp. Windchill Dew Point Humidity Pressure Visibility Wind Dir Wind Speed Gust Speed Precip Events Conditions
12:53 AM -15.0 °F -33.7 °F -22.0 °F 71% 30.42 in 10.0 mi WSW 9.2 mph - N/A   Clear
1:53 AM -17.0 °F -36.1 °F -24.0 °F 70% 30.43 in 10.0 mi West 9.2 mph - N/A   Clear
2:53 AM -16.1 °F -33.7 °F -23.1 °F 71% 30.43 in 10.0 mi West 8.1 mph - N/A   Clear
3:53 AM -16.1 °F -33.7 °F -24.0 °F 67% 30.44 in 10.0 mi West 8.1 mph - N/A   Clear
4:53 AM -18.9 °F -37.2 °F -25.1 °F 74% 30.45 in 10.0 mi West 8.1 mph - N/A   Clear
5:53 AM -18.0 °F -37.5 °F -25.1 °F 70% 30.46 in 10.0 mi West 9.2 mph - N/A   Clear
6:53 AM -18.9 °F -38.6 °F -25.1 °F 74% 30.48 in 10.0 mi WNW 9.2 mph - N/A   Clear
7:53 AM -18.0 °F -37.5 °F -25.1 °F 70% 30.49 in 10.0 mi WNW 9.2 mph - N/A   Clear
8:53 AM -17.0 °F -36.1 °F -25.1 °F 67% 30.52 in 10.0 mi WNW 9.2 mph - N/A   Clear
9:53 AM -16.1 °F -38.2 °F -25.1 °F 64% 30.55 in 10.0 mi NW 12.7 mph - N/A   Mostly Cloudy
10:02 AM -14.8 °F -38.3 °F -25.6 °F 58% 30.44 in 10.0 mi NW 15.0 mph - N/A   Mostly Cloudy
10:53 AM -15.0 °F -41.4 °F -23.1 °F 67% 30.57 in 3.0 mi NW 19.6 mph - 0.00 in   Mostly Cloudy
10:56 AM -14.8 °F -41.8 °F -23.8 °F 64% 30.46 in 2.5 mi NW 20.7 mph - 0.00 in   Mostly Cloudy
11:02 AM -14.8 °F -40.5 °F -23.8 °F 64% 30.47 in 3.0 mi NW 18.4 mph - 0.00 in   Mostly Cloudy
11:09 AM -14.8 °F -40.5 °F -23.8 °F 64% 30.46 in 9.0 mi NW 18.4 mph - 0.00 in   Mostly Cloudy
11:53 AM -14.1 °F -41.4 °F -24.0 °F 61% 30.57 in 9.0 mi NNW 21.9 mph - 0.00 in   Mostly Cloudy
12:53 PM -14.1 °F -39.6 °F -23.1 °F 64% 30.57 in 10.0 mi NNW 18.4 mph - N/A   Overcast
1:28 PM -13.0 °F -39.4 °F -23.8 °F 59% 30.45 in 10.0 mi NW 20.7 mph - N/A   Mostly Cloudy
1:49 PM -14.8 °F -40.5 °F -25.6 °F 58% 30.46 in 10.0 mi NW 18.4 mph - N/A   Scattered Clouds
1:53 PM -14.1 °F -38.9 °F -26.0 °F 55% 30.56 in 10.0 mi NNW 17.3 mph - N/A   Partly Cloudy
2:39 PM -14.8 °F -40.5 °F -25.6 °F 58% 30.46 in 10.0 mi NNW 18.4 mph - N/A   Mostly Cloudy
2:53 PM -15.0 °F -40.0 °F -25.1 °F 61% 30.57 in 9.0 mi NNW 17.3 mph - N/A   Overcast
3:53 PM -16.1 °F -40.7 °F -25.1 °F 64% 30.58 in 5.0 mi NW 16.1 mph - N/A   Haze
4:14 PM -16.6 °F -41.4 °F -25.6 °F 64% 30.47 in 10.0 mi NW 16.1 mph - N/A   Partly Cloudy
4:26 PM -16.6 °F -39.8 °F -23.8 °F 70% 30.47 in 2.5 mi NNW 13.8 mph - N/A   Haze
4:53 PM -17.0 °F -41.9 °F -24.0 °F 70% 30.59 in 1.8 mi NW 16.1 mph - N/A   Haze
4:58 PM -16.6 °F -42.9 °F -25.6 °F 64% 30.48 in 3.0 mi NW 18.4 mph - N/A   Haze
5:21 PM -18.4 °F -43.7 °F -27.4 °F 63% 30.48 in 10.0 mi NW 16.1 mph - N/A   Partly Cloudy
5:53 PM -18.0 °F -44.0 °F -27.9 °F 61% 30.59 in 10.0 mi NW 17.3 mph - N/A   Scattered Clouds
6:41 PM -18.4 °F -42.1 °F -27.4 °F 63% 30.48 in 10.0 mi WNW 13.8 mph - N/A   Overcast
6:53 PM -18.9 °F -41.8 °F -27.9 °F 63% 30.59 in 9.0 mi WNW 12.7 mph - N/A   Overcast
7:28 PM -18.4 °F -41.2 °F -27.4 °F 63% 30.47 in 10.0 mi WNW 12.7 mph - N/A   Scattered Clouds
7:53 PM -18.9 °F -40.8 °F -27.9 °F 63% 30.58 in 10.0 mi NW 11.5 mph - N/A   Scattered Clouds
8:53 PM -18.9 °F -42.8 °F -27.9 °F 63% 30.56 in 10.0 mi NW 13.8 mph - N/A   Clear
9:49 PM -18.4 °F -41.2 °F -27.4 °F 63% 30.44 in 10.0 mi NW 12.7 mph - N/A   Mostly Cloudy
9:53 PM -18.9 °F -42.8 °F -27.9 °F 63% 30.55 in 10.0 mi NW 13.8 mph - N/A   Mostly Cloudy
10:05 PM -18.4 °F -42.9 °F -27.4 °F 63% 30.44 in 10.0 mi NW 15.0 mph - N/A   Scattered Clouds
10:53 PM -18.9 °F -41.8 °F -27.9 °F 63% 30.54 in 10.0 mi NW 12.7 mph - N/A   Overcast
11:17 PM -18.4 °F -41.2 °F -27.4 °F 63% 30.42 in 8.0 mi NW 12.7 mph - N/A   Overcast
11:53 PM -18.9 °F -41.8 °F -27.0 °F 66% 30.53 in 9.0 mi NW 12.7 mph - N/A   Overcast